• In Hungary
  • List of Countries
  • For 7 days
  • Water Temperature
  • Satellite Maps
  • Weather Map
  • News
  • Weather Widgets
  • user-avatar
    Login

    Hourly Weather Gjirokaster

    Today, 24 September, Sunday

    Time Temperature Precipitation Wind Pressure Humidity
    00:00 +9°C° 0 mm 1 mps 655 mmHg 71%
    01:00 +9°C° 0 mm 1 mps 654 mmHg 71%
    02:00 +9°C° 0 mm 1 mps 654 mmHg 71%
    03:00 +9°C° 0 mm 1 mps 654 mmHg 71%
    04:00 +8°C° 0 mm 1 mps 654 mmHg 72%
    05:00 +9°C° 0 mm 1 mps 654 mmHg 68%
    06:00 +10°C° 0 mm 1 mps 654 mmHg 65%
    07:00 +11°C° 0 mm 1 mps 654 mmHg 61%
    08:00 +13°C° 0 mm 1 mps 655 mmHg 54%
    09:00 +15°C° 0 mm 2 mps 655 mmHg 48%
    10:00 +17°C° 0 mm 2 mps 656 mmHg 42%
    11:00 +17°C° 0 mm 2 mps 656 mmHg 41%
    12:00 +18°C° 0 mm 2 mps 655 mmHg 41%
    13:00 +18°C° 0 mm 2 mps 655 mmHg 40%
    14:00 +17°C° 0 mm 2 mps 655 mmHg 45%
    15:00 +16°C° 0 mm 2 mps 655 mmHg 50%
    16:00 +16°C° 0 mm 2 mps 654 mmHg 54%
    17:00 +15°C° 0 mm 2 mps 654 mmHg 59%
    18:00 +14°C° 0 mm 2 mps 654 mmHg 64%
    19:00 +13°C° 0 mm 1 mps 654 mmHg 69%
    20:00 +12°C° 0 mm 1 mps 654 mmHg 71%
    21:00 +12°C° 0 mm 2 mps 654 mmHg 73%
    22:00 +10°C° 0 mm 2 mps 654 mmHg 75%
    23:00 +10°C° 0.1 mm 2 mps 654 mmHg 77%

    Tomorrow, 25 September, Monday

    Time Temperature Precipitation Wind Pressure Humidity
    00:00 +9°C° 0.1 mm 2 mps 653 mmHg 79%
    01:00 +9°C° 0.1 mm 2 mps 653 mmHg 80%
    02:00 +9°C° 0.1 mm 2 mps 653 mmHg 80%
    03:00 +9°C° 0.1 mm 2 mps 653 mmHg 80%
    04:00 +9°C° 0.1 mm 2 mps 652 mmHg 80%
    05:00 +9°C° 0.1 mm 2 mps 652 mmHg 78%
    06:00 +10°C° 0.1 mm 2 mps 653 mmHg 75%
    07:00 +10°C° 0.1 mm 2 mps 653 mmHg 73%
    08:00 +13°C° 0.1 mm 2 mps 653 mmHg 66%
    09:00 +14°C° 0.1 mm 2 mps 654 mmHg 59%
    10:00 +15°C° 0.1 mm 2 mps 654 mmHg 53%
    11:00 +16°C° 0.3 mm 2 mps 654 mmHg 52%
    12:00 +16°C° 0.3 mm 2 mps 654 mmHg 52%
    13:00 +16°C° 0.3 mm 2 mps 654 mmHg 52%
    14:00 +15°C° 0.9 mm 2 mps 654 mmHg 56%
    15:00 +15°C° 0.9 mm 2 mps 653 mmHg 61%
    16:00 +14°C° 0.9 mm 1 mps 653 mmHg 65%
    17:00 +13°C° 0.6 mm 1 mps 653 mmHg 69%
    18:00 +12°C° 0.6 mm 2 mps 653 mmHg 73%
    19:00 +10°C° 0.6 mm 2 mps 653 mmHg 77%
    20:00 +10°C° 0.1 mm 2 mps 653 mmHg 79%
    21:00 +10°C° 0.1 mm 2 mps 653 mmHg 80%
    22:00 +9°C° 0.1 mm 2 mps 653 mmHg 81%
    23:00 +9°C° 0 mm 2 mps 653 mmHg 82%

    Day after tomorrow, 26 September, Tuesday

    Time Temperature Precipitation Wind Pressure Humidity
    00:00 +9°C° 0 mm 2 mps 653 mmHg 82%
    01:00 +9°C° 0 mm 2 mps 653 mmHg 82%
    02:00 +8°C° 0 mm 2 mps 653 mmHg 82%
    03:00 +8°C° 0 mm 2 mps 653 mmHg 81%
    04:00 +8°C° 0 mm 2 mps 652 mmHg 81%
    05:00 +8°C° 0 mm 2 mps 653 mmHg 78%
    06:00 +9°C° 0 mm 2 mps 653 mmHg 75%
    07:00 +10°C° 0 mm 2 mps 653 mmHg 73%
    08:00 +13°C° 0 mm 1 mps 654 mmHg 65%
    09:00 +15°C° 0 mm 1 mps 654 mmHg 57%
    10:00 +18°C° 0 mm 1 mps 655 mmHg 49%
    11:00 +18°C° 0.2 mm 1 mps 655 mmHg 48%
    12:00 +18°C° 0.2 mm 2 mps 655 mmHg 46%
    13:00 +18°C° 0.2 mm 2 mps 655 mmHg 45%
    14:00 +17°C° 0.3 mm 2 mps 655 mmHg 48%
    15:00 +17°C° 0.3 mm 2 mps 654 mmHg 51%
    16:00 +16°C° 0.3 mm 2 mps 654 mmHg 54%
    17:00 +15°C° 0.2 mm 2 mps 654 mmHg 59%
    18:00 +13°C° 0.2 mm 2 mps 654 mmHg 65%
    19:00 +12°C° 0.2 mm 2 mps 654 mmHg 70%
    20:00 +12°C° 0 mm 2 mps 654 mmHg 71%
    21:00 +11°C° 0 mm 1 mps 654 mmHg 72%
    22:00 +11°C° 0 mm 1 mps 655 mmHg 73%
    23:00 +11°C° 0 mm 1 mps 654 mmHg 73%

    27 September, Wednesday

    Time Temperature Precipitation Wind Pressure Humidity
    00:00 +10°C° 0 mm 1 mps 654 mmHg 73%
    01:00 +10°C° 0 mm 1 mps 654 mmHg 74%
    02:00 +10°C° 0 mm 1 mps 654 mmHg 74%
    03:00 +10°C° 0 mm 1 mps 654 mmHg 74%
    04:00 +10°C° 0 mm 1 mps 654 mmHg 75%
    05:00 +10°C° 0 mm 1 mps 655 mmHg 73%
    06:00 +10°C° 0 mm 2 mps 655 mmHg 71%
    07:00 +12°C° 0 mm 2 mps 655 mmHg 69%
    08:00 +13°C° 0 mm 1 mps 656 mmHg 61%
    09:00 +15°C° 0 mm 1 mps 656 mmHg 54%
    10:00 +18°C° 0 mm 1 mps 657 mmHg 47%
    11:00 +19°C° 0 mm 1 mps 657 mmHg 46%
    12:00 +18°C° 0 mm 2 mps 657 mmHg 45%
    13:00 +19°C° 0 mm 2 mps 657 mmHg 43%
    14:00 +18°C° 0.1 mm 2 mps 656 mmHg 47%
    15:00 +17°C° 0.1 mm 2 mps 656 mmHg 51%
    16:00 +16°C° 0.1 mm 2 mps 656 mmHg 55%
    17:00 +15°C° 0.2 mm 2 mps 656 mmHg 60%
    18:00 +14°C° 0.2 mm 1 mps 656 mmHg 66%
    19:00 +13°C° 0.2 mm 1 mps 656 mmHg 71%
    20:00 +12°C° 0.1 mm 1 mps 656 mmHg 72%
    21:00 +12°C° 0.1 mm 1 mps 656 mmHg 73%
    22:00 +12°C° 0.1 mm 1 mps 656 mmHg 74%
    23:00 +11°C° 0 mm 1 mps 656 mmHg 75%

    28 September, Thursday

    Time Temperature Precipitation Wind Pressure Humidity
    00:00 +11°C° 0 mm 1 mps 656 mmHg 75%
    01:00 +11°C° 0 mm 1 mps 655 mmHg 76%
    02:00 +9°C° 0 mm 2 mps 655 mmHg 77%
    03:00 +9°C° 0 mm 2 mps 655 mmHg 78%
    04:00 +9°C° 0 mm 2 mps 655 mmHg 78%
    05:00 +9°C° 0 mm 2 mps 655 mmHg 76%
    06:00 +10°C° 0 mm 2 mps 655 mmHg 75%
    07:00 +10°C° 0 mm 2 mps 656 mmHg 73%
    08:00 +13°C° 0 mm 2 mps 656 mmHg 66%
    09:00 +15°C° 0 mm 1 mps 657 mmHg 59%
    10:00 +18°C° 0 mm 1 mps 657 mmHg 52%
    11:00 +18°C° 0.2 mm 1 mps 657 mmHg 51%
    12:00 +17°C° 0.2 mm 2 mps 657 mmHg 49%
    13:00 +18°C° 0.2 mm 2 mps 657 mmHg 47%
    14:00 +17°C° 0.7 mm 2 mps 656 mmHg 53%
    15:00 +16°C° 0.7 mm 2 mps 656 mmHg 58%
    16:00 +15°C° 0.7 mm 2 mps 656 mmHg 63%
    17:00 +14°C° 0.8 mm 2 mps 656 mmHg 68%
    18:00 +13°C° 0.8 mm 2 mps 656 mmHg 73%
    19:00 +12°C° 0.8 mm 2 mps 656 mmHg 78%
    20:00 +12°C° 0.2 mm 2 mps 656 mmHg 79%
    21:00 +12°C° 0.2 mm 2 mps 656 mmHg 80%
    22:00 +10°C° 0.2 mm 2 mps 656 mmHg 81%
    23:00 +10°C° 0.1 mm 2 mps 656 mmHg 82%

    29 September, Friday

    Time Temperature Precipitation Wind Pressure Humidity
    00:00 +9°C° 0.1 mm 2 mps 655 mmHg 82%
    01:00 +9°C° 0.1 mm 2 mps 655 mmHg 82%
    02:00 +9°C° 0.1 mm 2 mps 655 mmHg 82%
    03:00 +8°C° 0.1 mm 2 mps 655 mmHg 83%
    04:00 +8°C° 0.1 mm 2 mps 654 mmHg 83%
    05:00 +8°C° 0.1 mm 2 mps 655 mmHg 81%
    06:00 +9°C° 0.1 mm 2 mps 655 mmHg 79%
    07:00 +9°C° 0.1 mm 2 mps 655 mmHg 77%
    08:00 +10°C° 0 mm 2 mps 655 mmHg 70%
    09:00 +13°C° 0 mm 2 mps 656 mmHg 62%
    10:00 +14°C° 0 mm 2 mps 656 mmHg 54%
    11:00 +15°C° 0 mm 2 mps 656 mmHg 52%
    12:00 +16°C° 0 mm 2 mps 656 mmHg 50%
    13:00 +16°C° 0 mm 2 mps 656 mmHg 47%
    14:00 +16°C° 0.1 mm 2 mps 656 mmHg 50%
    15:00 +15°C° 0.1 mm 2 mps 655 mmHg 53%
    16:00 +14°C° 0.1 mm 2 mps 655 mmHg 56%
    17:00 +13°C° 0.1 mm 2 mps 655 mmHg 61%
    18:00 +12°C° 0.1 mm 1 mps 655 mmHg 65%
    19:00 +11°C° 0.1 mm 1 mps 655 mmHg 70%
    20:00 +10°C° 0.1 mm 1 mps 655 mmHg 71%
    21:00 +9°C° 0.1 mm 2 mps 655 mmHg 73%
    22:00 +8°C° 0.1 mm 2 mps 655 mmHg 74%
    23:00 +8°C° 0.1 mm 2 mps 655 mmHg 75%
    Show more